Torreon, México

4:04 AM CST en Diciembre 17, 2017 (GMT -0600)
Torreon International

Tiempo Historia de MMTC - Marzo, 2017

Change the Weather History Date:

Lunes, Marzo 20, 2017

  Actual Average Record
Temperature  
Temperatura media 78 ° F -  
Temperatura máxima 95 ° F 86 ° F 95 ° F (2017)
Temperatura mínima 60 ° F 59 ° F 46 ° F (1997)
Cooling Degree Days 12    
Growing Degree Days 28 (Base 50)    
Moisture  
Punto de rocío 41 ° F    
Average Humidity 28    
Maximum Humidity 75    
Minimum Humidity 10    
Precipitación  
Precipitación 0.00 pul - - ()
Presión al nivel del mar  
Presión al nivel del mar 30.04 pul    
Viento  
Velocidad del viento 3 mph ()    
Velocidad máxima del viento 14 mph    
Max Gust Speed -    
Visibilidad 11.8 Millas    
Eventos      
Averages and records for this station are not official NWS values.
T = Trace of Precipitation, MM = Missing Value Source: Averaged Metar Reports

Daily Weather History Graph

Daily Weather History Graph

Search for Another Location

Airport or City:

Trip Planner

Search our weather history database for the weather conditions in past years. The results will help you decide how hot, cold, wet, or windy it might be!

Date:

Astronomía

Mar. 20, 2017 Salida Puesta
Hora real 7:57 AM EST 8:05 PM EST
Crepúsculo civil 7:34 AM EST 8:28 PM EST
Crepúsculo náutico 7:07 AM EST 8:54 PM EST
Crepúsculo astronómico 6:41 AM EST 9:21 PM EST
Luna 2:21 AM EST (3/20) 1:27 PM EST (3/20)
Horas de luz 12h 53m
Horas de luz
12h 07m
Gibosa menguante, 50% of the Moon is Illuminated
Mar 20
Gibosa menguante
Mar 27
Nueva
Abr 3
Cuarto creciente
Abr 11
Luna llena
Abr 19
Cuarto menguante

Hourly Weather History & Observations

Hora (EST) Temp. Punto de rocío Humedad Presión Visibilidad Wind Dir Velocidad del viento Velocidad de ráfagas Precip Eventos Condiciones
12:55 AM 70 ° F - % 29.93 pul 6 mi Sur 2.2 mph - -  
3:46 AM 67 ° F 41 ° F 27% 29.94 pul 6 mi NNE 2.2 mph - -  
5:40 AM 68.0 ° F 50.0 ° F 52% 30.17 pul 10.0 mi Sin viento Sin viento - N/A   Despejado
6:50 AM 63 ° F 57 ° F 75% 29.99 pul 6 mi NNE 2.2 mph - -  
7:41 AM 62.6 ° F 41.0 ° F 45% 30.21 pul 10.0 mi ENE 4.6 mph - N/A   Parcialmente nublado
8:47 AM 64.4 ° F 42.8 ° F 45% 30.23 pul 10.0 mi ESE 4.6 mph - N/A   Despejado
9:40 AM 66.2 ° F 42.8 ° F 43% 30.06 pul 10.0 mi Sin viento Sin viento - N/A   Despejado
9:48 AM 65 ° F 51 ° F 50% 30.08 pul 19 mi ESE 2.2 mph - -  
10:41 AM 71.6 ° F 42.8 ° F 35% 30.25 pul 10.0 mi Sin viento Sin viento - N/A   Parcialmente nublado
11:40 AM 77.0 ° F 42.8 ° F 29% 30.25 pul 10.0 mi Sin viento Sin viento - N/A   Parcialmente nublado
12:40 PM 80.6 ° F 42.8 ° F 26% 30.00 pul 10.0 mi Sin viento Sin viento - N/A   Despejado
12:45 PM 82 ° F 54 ° F 28% 30.05 pul 19 mi ENE 4.5 mph - -  
1:40 PM 84.2 ° F 41.0 ° F 22% 30.19 pul 10.0 mi Sin viento Sin viento - N/A   Parcialmente nublado
2:40 PM 87.8 ° F 37.4 ° F 17% 30.16 pul 10.0 mi NE 8.1 mph - N/A   Nubes dispersas
3:40 PM 89.6 ° F 28.4 ° F 11% 29.83 pul 15.0 mi NO 4.6 mph - N/A   Nubes dispersas
3:45 PM 92 ° F 55 ° F 19% 29.93 pul 19 mi Este 4.5 mph - -   Nubes dispersas
4:47 PM 89.6 ° F 30.2 ° F 12% 30.10 pul 15.0 mi NNE 13.8 mph - N/A   Nubes dispersas
5:45 PM 91.4 ° F 30.2 ° F 11% 30.08 pul 15.0 mi Este 2.3 mph - N/A   Nubes dispersas
6:45 PM 91 ° F 59 ° F 24% 29.81 pul 19 mi NE 2.2 mph - -  
6:46 PM 89.6 ° F 26.6 ° F 10% 29.80 pul 15.0 mi ENE 9.2 mph - N/A   Parcialmente nublado
7:49 PM 87.8 ° F 24.8 ° F 10% 30.07 pul 15.0 mi Norte 4.6 mph - N/A   Despejado
8:40 PM 84.2 ° F 26.6 ° F 12% 30.07 pul 10.0 mi NNE 2.3 mph - N/A   Despejado
9:44 PM 82.4 ° F 30.2 ° F 15% 29.83 pul 10.0 mi ENE 4.6 mph - N/A   Despejado
9:52 PM 78 ° F 58 ° F 40% 29.79 pul 6 mi SSE 2.2 mph - -  
10:43 PM 77.0 ° F 33.8 ° F 21% 30.09 pul 10.0 mi Sin viento Sin viento - N/A   Despejado